LNCHL ENBR-LIRQ

Flight info

Callsign LNCHL
Flight time 2h 35m
Altitude 39000
Route TUXIL DCT ZOL DCT LINVI P992 ATTUS DCT KUMER DCT EXITI DCT BERAS DCT LIKDA DCT BAKOR DCT GOXIN Q58 BIKTU
Aircraft CL60/M-SBDE1E2E3FGHIJ1J4J5J7M3RWXYZ/LB1V1D1

Departure

Time 2026-04-22 18:04
Airport Bergen Airport, Flesland (ENBR)

Arrival

Time 2026-04-22 20:40
Airport Florence Airport, Peretola (LIRQ)
Time Latitude Longitude Altitude Speed Heading
2026-04-22 17:23 60.29601 5.22282 155 ft 0 kts 260°
2026-04-22 18:01 60.29599 5.22251 154 ft 5 kts 261°
2026-04-22 18:01 60.29568 5.22184 153 ft 6 kts 179°
2026-04-22 18:01 60.29518 5.22200 154 ft 8 kts 171°
2026-04-22 18:01 60.29459 5.22219 156 ft 8 kts 171°
2026-04-22 18:02 60.29398 5.22174 156 ft 12 kts 221°
2026-04-22 18:02 60.29308 5.22147 157 ft 14 kts 171°
2026-04-22 18:02 60.29203 5.22182 160 ft 15 kts 171°
2026-04-22 18:02 60.29091 5.22219 163 ft 17 kts 170°
2026-04-22 18:03 60.28969 5.22261 166 ft 18 kts 170°
2026-04-22 18:03 60.28832 5.22307 166 ft 19 kts 170°
2026-04-22 18:03 60.28722 5.22340 165 ft 13 kts 179°
2026-04-22 18:03 60.28666 5.22228 162 ft 12 kts 260°
2026-04-22 18:04 60.28656 5.22070 158 ft 8 kts 279°
2026-04-22 18:04 60.28803 5.21992 160 ft 61 kts 351°
2026-04-22 18:04 60.29553 5.21741 195 ft 148 kts 349°
2026-04-22 18:04 60.30624 5.21361 939 ft 165 kts 348°
2026-04-22 18:05 60.31714 5.20939 1988 ft 162 kts 351°
2026-04-22 18:05 60.32775 5.20590 3010 ft 158 kts 352°
2026-04-22 18:05 60.33824 5.20246 3997 ft 156 kts 351°
2026-04-22 18:05 60.34786 5.19495 4895 ft 159 kts 321°
2026-04-22 18:06 60.35363 5.17585 5799 ft 166 kts 295°
2026-04-22 18:06 60.35513 5.15244 6492 ft 187 kts 273°
2026-04-22 18:06 60.34987 5.12393 6539 ft 251 kts 233°
2026-04-22 18:06 60.33577 5.09971 7295 ft 280 kts 221°
2026-04-22 18:07 60.32027 5.07613 8407 ft 290 kts 220°
2026-04-22 18:07 60.30414 5.05144 9691 ft 295 kts 221°
2026-04-22 18:07 60.28724 5.02946 10945 ft 303 kts 207°
2026-04-22 18:07 60.26643 5.01763 11901 ft 322 kts 185°
2026-04-22 18:08 60.24410 5.02225 12920 ft 333 kts 169°
2026-04-22 18:08 60.22151 5.03151 13976 ft 340 kts 168°
2026-04-22 18:08 60.19823 5.04084 15097 ft 343 kts 168°
2026-04-22 18:08 60.17525 5.05093 16171 ft 345 kts 163°
2026-04-22 18:09 60.15223 5.06558 17087 ft 351 kts 160°
2026-04-22 18:09 60.12924 5.08076 18113 ft 351 kts 160°
2026-04-22 18:09 60.10643 5.09572 19101 ft 352 kts 160°
2026-04-22 18:09 60.08318 5.11091 19999 ft 355 kts 159°
2026-04-22 18:10 60.05980 5.12615 20800 ft 359 kts 159°
2026-04-22 18:10 60.03603 5.14159 21587 ft 363 kts 159°
2026-04-22 18:10 60.01192 5.15721 22383 ft 366 kts 159°
2026-04-22 18:10 59.98768 5.17286 23168 ft 369 kts 159°
2026-04-22 18:11 59.96355 5.18841 23882 ft 373 kts 159°
2026-04-22 18:11 59.93892 5.20424 24623 ft 375 kts 158°
2026-04-22 18:11 59.91390 5.22027 25361 ft 378 kts 158°
2026-04-22 18:11 59.88880 5.23633 26055 ft 382 kts 158°
2026-04-22 18:12 59.86342 5.25253 26747 ft 384 kts 158°
2026-04-22 18:12 59.83776 5.26888 27405 ft 387 kts 158°
2026-04-22 18:12 59.82046 5.27988 27821 ft 389 kts 158°
2026-04-22 18:12 59.78585 5.30184 28614 ft 392 kts 158°
2026-04-22 18:13 59.76006 5.31817 29202 ft 394 kts 158°
2026-04-22 18:13 59.73387 5.33472 29717 ft 397 kts 158°
2026-04-22 18:13 59.70731 5.35148 30234 ft 400 kts 158°
2026-04-22 18:13 59.68109 5.36799 30745 ft 402 kts 157°
2026-04-22 18:14 59.65439 5.38463 31214 ft 405 kts 159°
2026-04-22 18:14 59.62626 5.39517 31634 ft 413 kts 167°
2026-04-22 18:14 59.59803 5.40215 32041 ft 416 kts 167°
2026-04-22 18:14 59.56938 5.40933 32465 ft 418 kts 167°
2026-04-22 18:15 59.54026 5.41664 32864 ft 420 kts 167°
2026-04-22 18:15 59.51160 5.42383 33229 ft 421 kts 167°
2026-04-22 18:15 59.48258 5.43111 33563 ft 423 kts 167°
2026-04-22 18:15 59.45311 5.43849 33880 ft 426 kts 167°
2026-04-22 18:16 59.42388 5.44580 34235 ft 426 kts 167°
2026-04-22 18:16 59.39487 5.45355 34679 ft 423 kts 165°
2026-04-22 18:16 59.36617 5.46366 35149 ft 420 kts 164°
2026-04-22 18:16 59.33764 5.47417 35576 ft 419 kts 164°
2026-04-22 18:17 59.30943 5.48450 35992 ft 417 kts 164°
2026-04-22 18:17 59.28090 5.49492 36377 ft 416 kts 164°
2026-04-22 18:17 59.25236 5.50532 36721 ft 416 kts 164°
2026-04-22 18:17 59.22435 5.51551 37052 ft 415 kts 164°
2026-04-22 18:18 59.19597 5.52581 37365 ft 415 kts 164°
2026-04-22 18:18 59.16769 5.53605 37654 ft 415 kts 164°
2026-04-22 18:18 59.13945 5.54626 37880 ft 416 kts 164°
2026-04-22 18:18 59.11135 5.55640 38124 ft 416 kts 164°
2026-04-22 18:19 59.08292 5.56663 38370 ft 416 kts 164°
2026-04-22 18:19 59.05452 5.57683 38621 ft 416 kts 164°
2026-04-22 18:19 59.02611 5.58702 38853 ft 416 kts 164°
2026-04-22 18:19 58.99826 5.59699 39093 ft 415 kts 164°
2026-04-22 18:20 58.96969 5.60719 39279 ft 415 kts 164°
2026-04-22 18:20 58.91264 5.62755 39370 ft 422 kts 164°
2026-04-22 18:21 58.85649 5.65712 39366 ft 422 kts 153°
2026-04-22 18:21 58.80341 5.70454 39349 ft 426 kts 151°
2026-04-22 18:22 58.74962 5.75267 39338 ft 428 kts 151°
2026-04-22 18:22 58.69587 5.80053 39342 ft 427 kts 151°
2026-04-22 18:23 58.64240 5.84795 39326 ft 426 kts 151°
2026-04-22 18:23 58.58899 5.89512 39338 ft 426 kts 151°
2026-04-22 18:24 58.50847 5.96593 39326 ft 425 kts 151°
2026-04-22 18:25 58.42805 6.03626 39307 ft 426 kts 151°
2026-04-22 18:25 58.37465 6.08274 39309 ft 425 kts 151°
2026-04-22 18:26 58.29379 6.15284 39300 ft 428 kts 150°
2026-04-22 18:26 58.23980 6.19944 39307 ft 428 kts 151°
2026-04-22 18:27 58.18589 6.24580 39281 ft 428 kts 151°
2026-04-22 18:27 58.13173 6.29223 39291 ft 428 kts 150°
2026-04-22 18:28 58.07789 6.33823 39282 ft 428 kts 150°
2026-04-22 18:28 58.02369 6.38437 39263 ft 428 kts 150°
2026-04-22 18:29 57.96979 6.43011 39264 ft 428 kts 150°
2026-04-22 18:29 57.91553 6.47600 39271 ft 428 kts 150°
2026-04-22 18:30 57.83427 6.54445 39290 ft 429 kts 150°
2026-04-22 18:31 57.77988 6.59007 39268 ft 429 kts 150°
2026-04-22 18:31 57.72577 6.63529 39255 ft 429 kts 150°
2026-04-22 18:32 57.67140 6.68059 39275 ft 430 kts 151°
2026-04-22 18:32 57.61693 6.72584 39274 ft 431 kts 151°
2026-04-22 18:33 57.56251 6.77088 39270 ft 431 kts 151°
2026-04-22 18:33 57.50780 6.81601 39278 ft 431 kts 151°
2026-04-22 18:34 57.45313 6.86097 39281 ft 431 kts 151°
2026-04-22 18:34 57.39845 6.90578 39264 ft 432 kts 151°
2026-04-22 18:35 57.34372 6.95049 39275 ft 432 kts 151°
2026-04-22 18:35 57.28894 6.99509 39284 ft 432 kts 151°
2026-04-22 18:36 57.23396 7.03972 39288 ft 432 kts 151°
2026-04-22 18:36 57.17928 7.08395 39266 ft 433 kts 151°
2026-04-22 18:37 57.12439 7.12821 39277 ft 433 kts 150°
2026-04-22 18:37 57.06918 7.17258 39283 ft 433 kts 150°
2026-04-22 18:38 57.01430 7.21654 39287 ft 433 kts 150°
2026-04-22 18:38 56.95964 7.26019 39299 ft 433 kts 150°
2026-04-22 18:39 56.87681 7.32605 39302 ft 434 kts 150°
2026-04-22 18:39 56.82154 7.36981 39304 ft 434 kts 150°
2026-04-22 18:40 56.76666 7.41313 39316 ft 433 kts 150°
2026-04-22 18:40 56.71156 7.45648 39305 ft 434 kts 150°
2026-04-22 18:41 56.65614 7.49995 39300 ft 435 kts 150°
2026-04-22 18:41 56.60101 7.54305 39301 ft 434 kts 150°
2026-04-22 18:42 56.54542 7.58636 39325 ft 434 kts 150°
2026-04-22 18:42 56.49002 7.62940 39304 ft 435 kts 150°
2026-04-22 18:43 56.43487 7.67210 39313 ft 435 kts 151°
2026-04-22 18:43 56.37935 7.71497 39310 ft 436 kts 151°
2026-04-22 18:44 56.32354 7.75790 39310 ft 437 kts 151°
2026-04-22 18:44 56.26810 7.80042 39335 ft 437 kts 151°
2026-04-22 18:45 56.21234 7.84305 39332 ft 437 kts 151°
2026-04-22 18:45 56.15641 7.88568 39336 ft 437 kts 151°
2026-04-22 18:46 56.10087 7.92787 39332 ft 438 kts 151°
2026-04-22 18:46 56.04459 7.97049 39331 ft 439 kts 151°
2026-04-22 18:47 55.98891 8.01252 39339 ft 439 kts 151°
2026-04-22 18:47 55.93295 8.05463 39352 ft 439 kts 151°
2026-04-22 18:48 55.87670 8.09684 39325 ft 440 kts 151°
2026-04-22 18:48 55.82055 8.13885 39324 ft 440 kts 151°
2026-04-22 18:49 55.76437 8.18076 39335 ft 440 kts 151°
2026-04-22 18:49 55.70828 8.22248 39337 ft 440 kts 151°
2026-04-22 18:50 55.65212 8.26412 39340 ft 440 kts 151°
2026-04-22 18:50 55.59515 8.30605 39348 ft 441 kts 152°
2026-04-22 18:51 55.53808 8.34596 39358 ft 442 kts 152°
2026-04-22 18:51 55.48111 8.38560 39351 ft 441 kts 152°
2026-04-22 18:52 55.42456 8.42483 39348 ft 441 kts 152°
2026-04-22 18:52 55.36746 8.46431 39336 ft 442 kts 152°
2026-04-22 18:53 55.31031 8.50368 39337 ft 441 kts 153°
2026-04-22 18:53 55.25342 8.54277 39350 ft 442 kts 152°
2026-04-22 18:54 55.19622 8.58196 39338 ft 442 kts 152°
2026-04-22 18:54 55.13936 8.62080 39326 ft 443 kts 152°
2026-04-22 18:55 55.08207 8.65981 39333 ft 444 kts 153°
2026-04-22 18:55 55.02478 8.69866 39364 ft 444 kts 153°
2026-04-22 18:56 54.96743 8.73746 39345 ft 445 kts 153°
2026-04-22 18:56 54.90972 8.77636 39343 ft 445 kts 153°
2026-04-22 18:57 54.85116 8.81227 39355 ft 447 kts 155°
2026-04-22 18:57 54.79259 8.84716 39335 ft 446 kts 155°
2026-04-22 18:58 54.73408 8.88192 39357 ft 448 kts 155°
2026-04-22 18:58 54.67535 8.91671 39380 ft 448 kts 155°
2026-04-22 18:59 54.61655 8.95145 39338 ft 450 kts 155°
2026-04-22 18:59 54.55728 8.98635 39327 ft 449 kts 155°
2026-04-22 19:00 54.49828 9.02098 39350 ft 451 kts 155°
2026-04-22 19:00 54.43935 9.05548 39346 ft 451 kts 155°
2026-04-22 19:01 54.38025 9.08998 39346 ft 451 kts 155°
2026-04-22 19:01 54.32116 9.12436 39341 ft 452 kts 156°
2026-04-22 19:02 54.26168 9.15888 39334 ft 453 kts 155°
2026-04-22 19:02 54.20256 9.19307 39345 ft 452 kts 156°
2026-04-22 19:03 54.14307 9.22738 39353 ft 452 kts 156°
2026-04-22 19:03 54.08353 9.26161 39375 ft 453 kts 156°
2026-04-22 19:04 54.02393 9.29577 39345 ft 454 kts 156°
2026-04-22 19:04 53.96408 9.32999 39331 ft 455 kts 156°
2026-04-22 19:05 53.90437 9.36400 39329 ft 456 kts 156°
2026-04-22 19:05 53.84464 9.39793 39350 ft 456 kts 156°
2026-04-22 19:06 53.78454 9.43197 39352 ft 457 kts 156°
2026-04-22 19:07 53.69431 9.48288 39339 ft 458 kts 156°
2026-04-22 19:07 53.63403 9.51677 39349 ft 458 kts 156°
2026-04-22 19:08 53.57367 9.55059 39331 ft 459 kts 156°
2026-04-22 19:08 53.51353 9.58419 39346 ft 460 kts 156°
2026-04-22 19:09 53.45279 9.61803 39333 ft 460 kts 156°
2026-04-22 19:09 53.39237 9.65158 39334 ft 459 kts 157°
2026-04-22 19:10 53.33189 9.68507 39333 ft 461 kts 157°
2026-04-22 19:10 53.27135 9.71849 39340 ft 461 kts 158°
2026-04-22 19:11 53.21030 9.75211 39321 ft 463 kts 158°
2026-04-22 19:11 53.14941 9.78552 39327 ft 463 kts 158°
2026-04-22 19:12 53.08867 9.81875 39332 ft 463 kts 158°
2026-04-22 19:12 53.02773 9.85200 39323 ft 464 kts 158°
2026-04-22 19:13 52.96632 9.88540 39327 ft 464 kts 158°
2026-04-22 19:13 52.90519 9.91855 39320 ft 465 kts 158°
2026-04-22 19:14 52.84386 9.95171 39326 ft 465 kts 158°
2026-04-22 19:14 52.78263 9.98471 39319 ft 466 kts 158°
2026-04-22 19:15 52.73117 10.01238 39322 ft 467 kts 158°
2026-04-22 19:15 52.65927 10.05091 39322 ft 467 kts 158°
2026-04-22 19:16 52.59771 10.08380 39326 ft 468 kts 158°
2026-04-22 19:16 52.53557 10.11690 39323 ft 469 kts 158°
2026-04-22 19:17 52.47348 10.14987 39319 ft 469 kts 158°
2026-04-22 19:17 52.41178 10.18254 39320 ft 469 kts 158°
2026-04-22 19:18 52.34955 10.21540 39313 ft 470 kts 158°
2026-04-22 19:18 52.28726 10.24818 39315 ft 470 kts 158°
2026-04-22 19:19 52.22538 10.28066 39313 ft 471 kts 158°
2026-04-22 19:19 52.16291 10.31335 39307 ft 471 kts 158°
2026-04-22 19:20 52.10083 10.34574 39304 ft 472 kts 159°
2026-04-22 19:20 52.03802 10.37841 39304 ft 472 kts 158°
2026-04-22 19:21 51.97577 10.41071 39309 ft 472 kts 159°
2026-04-22 19:21 51.91310 10.44312 39298 ft 473 kts 158°
2026-04-22 19:22 51.85053 10.47538 39294 ft 473 kts 159°
2026-04-22 19:22 51.78775 10.50766 39265 ft 473 kts 158°
2026-04-22 19:23 51.72554 10.53956 39283 ft 473 kts 159°
2026-04-22 19:23 51.66251 10.57178 39289 ft 474 kts 159°
2026-04-22 19:24 51.60013 10.60358 39298 ft 475 kts 159°
2026-04-22 19:24 51.53698 10.63549 39301 ft 476 kts 160°
2026-04-22 19:25 51.47293 10.66208 39294 ft 478 kts 163°
2026-04-22 19:25 51.40838 10.68824 39306 ft 478 kts 163°
2026-04-22 19:26 51.34440 10.71412 39296 ft 478 kts 163°
2026-04-22 19:26 51.27954 10.74030 39290 ft 480 kts 163°
2026-04-22 19:27 51.21536 10.76614 39295 ft 480 kts 163°
2026-04-22 19:27 51.15061 10.79214 39306 ft 480 kts 163°
2026-04-22 19:28 51.08599 10.81802 39315 ft 481 kts 163°
2026-04-22 19:28 51.02119 10.84390 39316 ft 481 kts 163°
2026-04-22 19:29 50.95640 10.86971 39322 ft 482 kts 163°
2026-04-22 19:29 50.89151 10.89549 39316 ft 481 kts 163°
2026-04-22 19:30 50.83791 10.91672 39309 ft 481 kts 163°
2026-04-22 19:30 50.76217 10.94665 39300 ft 482 kts 163°
2026-04-22 19:31 50.69733 10.97219 39294 ft 482 kts 163°
2026-04-22 19:31 50.63224 10.99776 39295 ft 482 kts 163°
2026-04-22 19:32 50.56697 11.02333 39290 ft 482 kts 163°
2026-04-22 19:32 50.50214 11.04865 39285 ft 483 kts 163°
2026-04-22 19:33 50.43697 11.07404 39289 ft 483 kts 163°
2026-04-22 19:33 50.37189 11.09931 39293 ft 483 kts 163°
2026-04-22 19:34 50.30654 11.12462 39293 ft 483 kts 163°
2026-04-22 19:34 50.24171 11.14966 39296 ft 483 kts 164°
2026-04-22 19:35 50.17646 11.17479 39298 ft 483 kts 163°
2026-04-22 19:35 50.11116 11.19987 39294 ft 483 kts 164°
2026-04-22 19:36 50.04630 11.22471 39291 ft 484 kts 164°
2026-04-22 19:36 49.98093 11.24967 39288 ft 484 kts 164°
2026-04-22 19:37 49.91580 11.27448 39294 ft 484 kts 164°
2026-04-22 19:37 49.85022 11.29939 39289 ft 484 kts 164°
2026-04-22 19:38 49.78585 11.32376 39280 ft 484 kts 164°
2026-04-22 19:38 49.72087 11.34830 39282 ft 484 kts 164°
2026-04-22 19:39 49.65528 11.37301 39278 ft 484 kts 164°
2026-04-22 19:39 49.58993 11.39755 39281 ft 484 kts 164°
2026-04-22 19:40 49.52364 11.41473 39275 ft 486 kts 172°
2026-04-22 19:40 49.45641 11.42614 39276 ft 487 kts 172°
2026-04-22 19:41 49.38947 11.43754 39274 ft 487 kts 172°
2026-04-22 19:41 49.32191 11.44903 39264 ft 487 kts 172°
2026-04-22 19:42 49.25493 11.46039 39253 ft 487 kts 172°
2026-04-22 19:42 49.18766 11.47178 39253 ft 486 kts 172°
2026-04-22 19:43 49.08725 11.48872 39250 ft 487 kts 172°
2026-04-22 19:43 49.01974 11.50008 39252 ft 487 kts 172°
2026-04-22 19:44 48.95261 11.51134 39257 ft 487 kts 172°
2026-04-22 19:44 48.88571 11.52254 39271 ft 487 kts 172°
2026-04-22 19:45 48.81817 11.53381 39267 ft 487 kts 172°
2026-04-22 19:45 48.75082 11.54502 39266 ft 487 kts 172°
2026-04-22 19:46 48.68341 11.55621 39267 ft 487 kts 172°
2026-04-22 19:46 48.61615 11.56735 39269 ft 488 kts 172°
2026-04-22 19:47 48.54899 11.57844 39267 ft 488 kts 172°
2026-04-22 19:47 48.48154 11.58954 39259 ft 488 kts 172°
2026-04-22 19:48 48.41435 11.60058 39265 ft 488 kts 172°
2026-04-22 19:48 48.34670 11.61166 39251 ft 488 kts 172°
2026-04-22 19:49 48.27957 11.62262 39252 ft 488 kts 173°
2026-04-22 19:49 48.21201 11.63362 39250 ft 488 kts 173°
2026-04-22 19:50 48.14449 11.64459 39240 ft 488 kts 173°
2026-04-22 19:50 48.07732 11.65547 39242 ft 488 kts 173°
2026-04-22 19:51 48.00988 11.66637 39238 ft 488 kts 174°
2026-04-22 19:51 47.94228 11.67727 39251 ft 488 kts 174°
2026-04-22 19:52 47.87497 11.68808 39238 ft 488 kts 174°
2026-04-22 19:52 47.80768 11.69887 39246 ft 488 kts 174°
2026-04-22 19:53 47.74016 11.70966 39245 ft 489 kts 174°
2026-04-22 19:53 47.67231 11.72048 39244 ft 489 kts 174°
2026-04-22 19:54 47.60483 11.73120 39252 ft 489 kts 174°
2026-04-22 19:54 47.53729 11.74191 39236 ft 489 kts 174°
2026-04-22 19:55 47.46982 11.75258 39232 ft 490 kts 174°
2026-04-22 19:55 47.40204 11.76328 39214 ft 490 kts 174°
2026-04-22 19:56 47.33416 11.76911 39194 ft 490 kts 183°
2026-04-22 19:56 47.26648 11.76519 39172 ft 490 kts 183°
2026-04-22 19:57 47.19798 11.76133 39166 ft 490 kts 183°
2026-04-22 19:57 47.13000 11.75752 39156 ft 490 kts 183°
2026-04-22 19:58 47.06180 11.75374 39154 ft 490 kts 183°
2026-04-22 19:58 46.99359 11.74997 39143 ft 491 kts 183°
2026-04-22 20:00 46.75554 11.73684 39227 ft 492 kts 184°
2026-04-22 20:01 46.68704 11.73310 39226 ft 492 kts 184°
2026-04-22 20:01 46.61919 11.72940 39180 ft 492 kts 184°
2026-04-22 20:02 46.55055 11.72466 39157 ft 491 kts 185°
2026-04-22 20:02 46.48246 11.71965 39140 ft 491 kts 185°
2026-04-22 20:03 46.41453 11.71468 39138 ft 491 kts 185°
2026-04-22 20:03 46.34610 11.70968 39134 ft 491 kts 185°
2026-04-22 20:04 46.27788 11.70472 39114 ft 492 kts 185°
2026-04-22 20:04 46.20947 11.69976 39111 ft 492 kts 185°
2026-04-22 20:05 46.14119 11.69483 39133 ft 491 kts 185°
2026-04-22 20:05 46.07279 11.68990 39143 ft 491 kts 185°
2026-04-22 20:06 46.00415 11.68497 39141 ft 492 kts 185°
2026-04-22 20:06 45.93570 11.68006 39152 ft 491 kts 185°
2026-04-22 20:07 45.86754 11.67518 39141 ft 491 kts 185°
2026-04-22 20:07 45.79883 11.67028 39168 ft 492 kts 185°
2026-04-22 20:08 45.73022 11.66540 39163 ft 493 kts 186°
2026-04-22 20:08 45.66206 11.66056 39177 ft 492 kts 186°
2026-04-22 20:09 45.59364 11.65572 39170 ft 492 kts 186°
2026-04-22 20:09 45.52531 11.65090 39173 ft 491 kts 186°
2026-04-22 20:10 45.45701 11.64609 39151 ft 492 kts 186°
2026-04-22 20:10 45.38903 11.64132 39179 ft 492 kts 186°
2026-04-22 20:11 45.32039 11.63650 39004 ft 495 kts 187°
2026-04-22 20:11 45.28603 11.63410 38516 ft 493 kts 187°
2026-04-22 20:11 45.25221 11.63176 38032 ft 488 kts 187°
2026-04-22 20:11 45.21848 11.62942 37496 ft 485 kts 187°
2026-04-22 20:12 45.18471 11.62707 36979 ft 484 kts 187°
2026-04-22 20:12 45.15131 11.62474 36441 ft 484 kts 187°
2026-04-22 20:12 45.12879 11.62317 36107 ft 485 kts 188°
2026-04-22 20:12 45.08412 11.62006 35404 ft 487 kts 188°
2026-04-22 20:13 45.05032 11.61771 34855 ft 489 kts 188°
2026-04-22 20:13 45.01632 11.61535 34249 ft 488 kts 189°
2026-04-22 20:13 44.98259 11.61303 33743 ft 486 kts 189°
2026-04-22 20:13 44.94867 11.61068 33204 ft 488 kts 189°
2026-04-22 20:14 44.91454 11.60832 32674 ft 490 kts 189°
2026-04-22 20:14 44.88062 11.60598 32127 ft 490 kts 190°
2026-04-22 20:14 44.84683 11.60367 31590 ft 486 kts 190°
2026-04-22 20:14 44.81331 11.60139 31060 ft 482 kts 191°
2026-04-22 20:15 44.78000 11.59913 30529 ft 478 kts 191°
2026-04-22 20:15 44.74667 11.59686 29995 ft 474 kts 190°
2026-04-22 20:15 44.71431 11.59466 29477 ft 470 kts 191°
2026-04-22 20:15 44.68164 11.59244 28959 ft 466 kts 190°
2026-04-22 20:16 44.64959 11.59025 28454 ft 463 kts 190°
2026-04-22 20:16 44.61736 11.58805 27945 ft 461 kts 189°
2026-04-22 20:16 44.58572 11.58590 27413 ft 457 kts 189°
2026-04-22 20:16 44.55441 11.58377 26942 ft 453 kts 190°
2026-04-22 20:17 44.52302 11.58163 26448 ft 451 kts 189°
2026-04-22 20:17 44.49178 11.57950 25936 ft 449 kts 189°
2026-04-22 20:17 44.46062 11.57739 25432 ft 444 kts 189°
2026-04-22 20:17 44.43018 11.57533 24969 ft 441 kts 189°
2026-04-22 20:18 44.39926 11.57323 24457 ft 440 kts 189°
2026-04-22 20:18 44.36889 11.57118 23980 ft 437 kts 189°
2026-04-22 20:18 44.33859 11.56913 23501 ft 433 kts 188°
2026-04-22 20:18 44.30897 11.56713 23026 ft 431 kts 188°
2026-04-22 20:19 44.27902 11.56511 22545 ft 426 kts 188°
2026-04-22 20:19 44.24966 11.56272 22090 ft 423 kts 189°
2026-04-22 20:19 44.22047 11.55993 21610 ft 417 kts 189°
2026-04-22 20:19 44.19172 11.55720 21159 ft 411 kts 189°
2026-04-22 20:20 44.16379 11.55455 20702 ft 403 kts 188°
2026-04-22 20:20 44.13608 11.55193 20262 ft 395 kts 187°
2026-04-22 20:20 44.10891 11.54936 19831 ft 387 kts 187°
2026-04-22 20:20 44.08248 11.54685 19405 ft 380 kts 187°
2026-04-22 20:21 44.05648 11.54439 18984 ft 373 kts 187°
2026-04-22 20:21 44.03061 11.54194 18571 ft 367 kts 186°
2026-04-22 20:21 44.00574 11.53713 18173 ft 356 kts 199°
2026-04-22 20:21 43.98377 11.52340 17781 ft 344 kts 215°
2026-04-22 20:22 43.96376 11.50618 17415 ft 337 kts 216°
2026-04-22 20:22 43.94392 11.48916 17067 ft 332 kts 216°
2026-04-22 20:22 43.92417 11.47223 16736 ft 334 kts 216°
2026-04-22 20:22 43.90445 11.45534 16374 ft 335 kts 216°
2026-04-22 20:23 43.88462 11.43839 15992 ft 333 kts 216°
2026-04-22 20:23 43.86500 11.42162 15644 ft 331 kts 216°
2026-04-22 20:23 43.84550 11.40497 15301 ft 329 kts 216°
2026-04-22 20:23 43.82594 11.38828 14959 ft 328 kts 216°
2026-04-22 20:24 43.80644 11.37166 14586 ft 327 kts 216°
2026-04-22 20:24 43.78713 11.35521 14225 ft 324 kts 216°
2026-04-22 20:24 43.76790 11.33884 13894 ft 323 kts 214°
2026-04-22 20:24 43.74999 11.32021 13319 ft 323 kts 230°
2026-04-22 20:25 43.73547 11.29758 13052 ft 312 kts 233°
2026-04-22 20:25 43.72098 11.27501 12681 ft 310 kts 232°
2026-04-22 20:25 43.70663 11.25273 12374 ft 310 kts 232°
2026-04-22 20:25 43.69234 11.23057 12037 ft 310 kts 231°
2026-04-22 20:26 43.67803 11.20846 11696 ft 306 kts 231°
2026-04-22 20:26 43.66396 11.18673 11365 ft 300 kts 231°
2026-04-22 20:26 43.65031 11.16569 11072 ft 294 kts 231°
2026-04-22 20:26 43.63670 11.14479 10749 ft 291 kts 231°
2026-04-22 20:27 43.62311 11.12402 10430 ft 288 kts 231°
2026-04-22 20:27 43.60984 11.10375 10116 ft 284 kts 231°
2026-04-22 20:27 43.59660 11.08357 9815 ft 280 kts 231°
2026-04-22 20:27 43.58368 11.06382 9518 ft 276 kts 231°
2026-04-22 20:28 43.57097 11.04427 9229 ft 273 kts 230°
2026-04-22 20:28 43.55840 11.02493 8933 ft 269 kts 230°
2026-04-22 20:28 43.54586 11.00567 8649 ft 266 kts 230°
2026-04-22 20:28 43.53371 10.98701 8368 ft 263 kts 230°
2026-04-22 20:29 43.52148 10.96825 8075 ft 261 kts 230°
2026-04-22 20:29 43.50951 10.94992 7806 ft 257 kts 230°
2026-04-22 20:29 43.49829 10.93070 7496 ft 253 kts 243°
2026-04-22 20:29 43.49325 10.90811 7136 ft 247 kts 271°
2026-04-22 20:30 43.49578 10.88550 6841 ft 236 kts 297°
2026-04-22 20:30 43.50442 10.86699 6451 ft 230 kts 319°
2026-04-22 20:30 43.51604 10.85232 6227 ft 222 kts 323°
2026-04-22 20:30 43.52741 10.83830 5997 ft 224 kts 323°
2026-04-22 20:31 43.54025 10.82624 5731 ft 218 kts 345°
2026-04-22 20:31 43.55474 10.82449 5435 ft 210 kts 13°
2026-04-22 20:31 43.56835 10.83136 5188 ft 202 kts 33°
2026-04-22 20:31 43.57883 10.84337 5023 ft 193 kts 47°
2026-04-22 20:32 43.58707 10.85745 4806 ft 189 kts 53°
2026-04-22 20:32 43.59472 10.87214 4590 ft 185 kts 52°
2026-04-22 20:32 43.60238 10.88599 4371 ft 181 kts 50°
2026-04-22 20:32 43.61055 10.89932 4086 ft 180 kts 48°
2026-04-22 20:33 43.61887 10.91196 3813 ft 180 kts 47°
2026-04-22 20:33 43.62740 10.92463 3561 ft 178 kts 46°
2026-04-22 20:33 43.63570 10.93704 3282 ft 178 kts 47°
2026-04-22 20:33 43.64403 10.94968 3012 ft 177 kts 47°
2026-04-22 20:34 43.65216 10.96214 2948 ft 174 kts 47°
2026-04-22 20:34 43.66045 10.97483 2959 ft 177 kts 47°
2026-04-22 20:34 43.66865 10.98729 2966 ft 178 kts 46°
2026-04-22 20:34 43.67686 11.00003 2967 ft 174 kts 48°
2026-04-22 20:35 43.68441 11.01209 2972 ft 155 kts 48°
2026-04-22 20:35 43.69132 11.02322 2902 ft 149 kts 48°
2026-04-22 20:35 43.69812 11.03388 2965 ft 149 kts 46°
2026-04-22 20:35 43.70515 11.04460 3020 ft 152 kts 46°
2026-04-22 20:36 43.71233 11.05537 2969 ft 152 kts 46°
2026-04-22 20:36 43.71960 11.06618 2698 ft 153 kts 46°
2026-04-22 20:36 43.72669 11.07662 2526 ft 141 kts 46°
2026-04-22 20:36 43.73316 11.08622 2316 ft 132 kts 46°
2026-04-22 20:37 43.73925 11.09497 2096 ft 122 kts 47°
2026-04-22 20:37 43.74501 11.10374 1962 ft 120 kts 47°
2026-04-22 20:37 43.75032 11.11225 1858 ft 117 kts 51°
2026-04-22 20:37 43.75560 11.12094 1659 ft 119 kts 49°
2026-04-22 20:38 43.76120 11.12926 1474 ft 119 kts 47°
2026-04-22 20:38 43.76659 11.13776 1274 ft 116 kts 50°
2026-04-22 20:38 43.77186 11.14636 1115 ft 121 kts 50°
2026-04-22 20:38 43.77761 11.15485 1033 ft 118 kts 47°
2026-04-22 20:39 43.78328 11.16360 851 ft 122 kts 49°
2026-04-22 20:39 43.78878 11.17226 670 ft 118 kts 50°
2026-04-22 20:39 43.79424 11.18070 515 ft 119 kts 49°
2026-04-22 20:39 43.79991 11.18930 377 ft 123 kts 49°
2026-04-22 20:40 43.80555 11.19805 176 ft 116 kts 49°
2026-04-22 20:40 43.81005 11.20508 134 ft 54 kts 49°
2026-04-22 20:40 43.81073 11.20640 136 ft 8 kts 44°
2026-04-22 20:40 43.81057 11.20584 136 ft 13 kts 224°
2026-04-22 20:41 43.80979 11.20468 133 ft 19 kts 227°
2026-04-22 20:41 43.80879 11.20314 133 ft 23 kts 228°
2026-04-22 20:41 43.80762 11.20132 133 ft 25 kts 227°
2026-04-22 20:41 43.80660 11.19975 133 ft 17 kts 228°
2026-04-22 20:42 43.80593 11.19871 134 ft 13 kts 228°
2026-04-22 20:42 43.80558 11.19788 135 ft 9 kts 282°
2026-04-22 20:42 43.80613 11.19707 133 ft 12 kts 318°
2026-04-22 20:42 43.80666 11.19641 133 ft 6 kts 318°
2026-04-22 20:43 43.80676 11.19628 133 ft 0 kts 318°
2026-04-22 20:43 43.80685 11.19617 133 ft 5 kts 311°
2026-04-22 20:43 43.80696 11.19559 133 ft 6 kts 268°
2026-04-22 20:43 43.80695 11.19525 133 ft 1 kts 268°
2026-04-22 20:44 43.80695 11.19513 133 ft 0 kts 267°